Pascagoula, MS

8:29 AM CDT on August 22, 2017 (GMT -0500)
Lott International

Weather History for KPQL - April, 2013

Change the Weather History Date:

Monday, April 1, 2013

  Actual Average Record
Temperature  
Mean Temperature 63 °F -  
Max Temperature 75 °F 73 °F 84 °F (2017)
Min Temperature 51 °F 55 °F 34 °F (1987)
Degree Days  
Heating Degree Days 2    
Growing Degree Days 13 (Base 50)    
Moisture  
Dew Point 54 °F    
Average Humidity 88    
Maximum Humidity 100    
Minimum Humidity 44    
Precipitation  
Precipitation 0.00 in - - ()
Sea Level Pressure  
Sea Level Pressure 30.02 in    
Wind  
Wind Speed 3 mph (NNW)    
Max Wind Speed 10 mph    
Max Gust Speed 16 mph    
Visibility 6 miles    
Events Fog    
Averages and records for this station are not official NWS values.
T = Trace of Precipitation, MM = Missing Value Source: NWS Daily Summary

Daily Weather History Graph

Daily Weather History Graph

Search for Another Location

Airport or City:

Trip Planner

Search our weather history database for the weather conditions in past years. The results will help you decide how hot, cold, wet, or windy it might be!

Date:

Astronomy

Apr. 01, 2013 Rise Set
Actual Time 6:42 AM CDT 7:13 PM CDT
Civil Twilight 6:18 AM CDT 7:37 PM CDT
Nautical Twilight 5:50 AM CDT 8:05 PM CDT
Astronomical Twilight 5:21 AM CDT 8:34 PM CDT
Moon 12:03 AM CDT (4/1) 10:47 AM CDT (4/1)
Length of Visible Light 13h 18m
Length of Day
12h 30m
Waning Gibbous, 67% of the Moon is Illuminated
Apr 1
Waning Gibbous
Apr 2
Last Quarter
Apr 10
New
Apr 18
First Quarter
Apr 25
Full

Hourly Weather History & Observations

Time (CDT) Temp. Dew Point Humidity Pressure Visibility Wind Dir Wind Speed Gust Speed Precip Events Conditions
12:09 AM 62.6 °F 60.8 °F 94% 29.95 in 10.0 mi Variable 4.6 mph - N/A   Partly Cloudy
12:22 AM 62.6 °F 60.8 °F 94% 29.95 in 10.0 mi NNW 5.8 mph - N/A   Mostly Cloudy
12:53 AM 62.1 °F 60.1 °F 93% 29.96 in 10.0 mi NNW 4.6 mph - N/A   Overcast
1:32 AM 60.8 °F 59.0 °F 94% 29.94 in 10.0 mi Calm Calm - N/A   Partly Cloudy
1:53 AM 60.1 °F 59.0 °F 96% 29.94 in 10.0 mi Calm Calm - N/A   Clear
2:53 AM 57.9 °F 55.9 °F 93% 29.94 in 4.0 mi Calm Calm - N/A   Clear
2:59 AM 57.2 °F 55.4 °F 94% 29.94 in 1.8 mi Calm Calm - N/A   Clear
3:09 AM 55.4 °F 55.4 °F 100% 29.94 in 0.5 mi Calm Calm - N/A Fog Fog
3:53 AM 55.0 °F 54.0 °F 96% 29.95 in 0.5 mi Calm Calm - N/A Fog Fog
4:19 AM 53.6 °F 53.6 °F 100% 29.96 in 1.2 mi Calm Calm - N/A   Partly Cloudy
4:23 AM 53.6 °F 53.6 °F 100% 29.96 in 3.0 mi Calm Calm - N/A   Partly Cloudy
4:40 AM 53.6 °F 53.6 °F 100% 29.97 in 1.8 mi Calm Calm - N/A   Clear
4:53 AM 54.0 °F 53.1 °F 97% 29.98 in 0.8 mi Calm Calm - N/A   Clear
5:33 AM 53.6 °F 51.8 °F 94% 29.99 in 1.2 mi Calm Calm - N/A   Scattered Clouds
5:37 AM 53.6 °F 51.8 °F 94% 29.99 in 0.8 mi Calm Calm - N/A   Mist
5:53 AM 52.0 °F 51.1 °F 97% 30.01 in 0.8 mi Calm Calm - N/A   Mist
6:08 AM 53.6 °F 51.8 °F 94% 30.00 in 5.0 mi Calm Calm - N/A   Partly Cloudy
6:53 AM 52.0 °F 51.1 °F 97% 30.03 in 5.0 mi Calm Calm - N/A   Partly Cloudy
7:00 AM 51.8 °F 50.0 °F 94% 30.03 in 0.8 mi Calm Calm - N/A   Mist
7:06 AM 51.8 °F 50.0 °F 94% 30.03 in 2.0 mi Calm Calm - N/A   Partly Cloudy
7:14 AM 53.6 °F 51.8 °F 94% 30.03 in 4.0 mi Calm Calm - N/A   Scattered Clouds
7:21 AM 55.4 °F 53.6 °F 94% 30.03 in 9.0 mi NNW 3.5 mph - N/A   Mostly Cloudy
7:38 AM 55.4 °F 55.4 °F 100% 30.04 in 2.0 mi NNW 3.5 mph - N/A   Overcast
7:46 AM 55.4 °F 55.4 °F 100% 30.04 in 1.5 mi NW 4.6 mph - N/A   Overcast
7:53 AM 55.9 °F 55.0 °F 97% 30.05 in 0.8 mi NNW 3.5 mph - N/A   Overcast
8:30 AM 57.2 °F 55.4 °F 94% 30.05 in 1.5 mi North 6.9 mph - N/A   Overcast
8:43 AM 57.2 °F 55.4 °F 94% 30.06 in 2.5 mi North 9.2 mph - N/A   Overcast
8:51 AM 57.2 °F 55.4 °F 94% 30.06 in 3.0 mi NNW 5.8 mph - N/A   Overcast
9:53 AM 57.9 °F 55.9 °F 93% 30.07 in 9.0 mi North 8.1 mph - N/A   Overcast
10:25 AM 60.8 °F 57.2 °F 88% 30.07 in 10.0 mi NNW 4.6 mph - N/A   Overcast
10:53 AM 62.1 °F 57.0 °F 84% 30.08 in 10.0 mi NNW 4.6 mph - N/A   Overcast
11:35 AM 64.4 °F 57.2 °F 77% 30.08 in 10.0 mi North 10.4 mph - N/A   Overcast
11:53 AM 66.9 °F 57.9 °F 73% 30.08 in 10.0 mi North 9.2 mph - N/A   Mostly Cloudy
12:09 PM 68.0 °F 57.2 °F 68% 30.07 in 10.0 mi North 10.4 mph - N/A   Scattered Clouds
12:53 PM 69.1 °F 57.0 °F 65% 30.07 in 10.0 mi North 9.2 mph - N/A   Partly Cloudy
1:53 PM 72.0 °F 57.0 °F 59% 30.05 in 10.0 mi NNW 9.2 mph 16.1 mph N/A   Clear
2:53 PM 73.9 °F 55.9 °F 53% 30.03 in 10.0 mi Variable 5.8 mph - N/A   Clear
3:53 PM 75.0 °F 55.0 °F 50% 30.02 in 10.0 mi NNW 10.4 mph 16.1 mph N/A   Clear
4:53 PM 75.9 °F 53.1 °F 45% 30.01 in 10.0 mi North 6.9 mph - N/A   Clear
5:53 PM 75.0 °F 52.0 °F 44% 30.00 in 10.0 mi NNE 8.1 mph - N/A   Clear
6:53 PM 70.0 °F 54.0 °F 57% 30.01 in 10.0 mi NNE 3.5 mph - N/A   Clear
7:53 PM 60.1 °F 55.9 °F 86% 30.03 in 10.0 mi Calm Calm - N/A   Clear
8:53 PM 57.0 °F 54.0 °F 89% 30.04 in 10.0 mi Calm Calm - N/A   Clear
9:53 PM 55.0 °F 53.1 °F 93% 30.05 in 9.0 mi Calm Calm - N/A   Clear
10:53 PM 53.1 °F 51.1 °F 93% 30.06 in 5.0 mi Calm Calm - N/A   Clear
11:12 PM 51.8 °F 50.0 °F 94% 30.05 in 1.5 mi Calm Calm - N/A   Clear
11:17 PM 51.8 °F 50.0 °F 94% 30.05 in 0.5 mi Calm Calm - N/A Fog Fog
11:25 PM 51.8 °F 50.0 °F 94% 30.05 in 0.5 mi Calm Calm - N/A Fog Fog
11:37 PM 51.8 °F 50.0 °F 94% 30.05 in 1.0 mi Calm Calm - N/A   Mist
11:45 PM 51.8 °F 50.0 °F 94% 30.05 in 3.0 mi Calm Calm - N/A   Overcast
11:53 PM 51.1 °F 50.0 °F 96% 30.06 in 6.0 mi Calm Calm - N/A   Overcast